#timestamp,LO_Frequency,Hit,StdDev 
1541307615.2,286047000.1,N
1541307635.1,286047002.2,N
1541307636.0,286047002.2,N
1541307655.8,286047000.3,N
1541307675.7,286047000.6,N
1541307695.5,286046998.1,N
1541307715.3,286047001.2,N
1541307735.2,286047000.7,N
1541307755.0,286046998.5,N
1541307755.9,286046998.5,N
1541307775.8,286047000.5,N
1541307795.6,286047000.4,N
1541307815.4,286046999.7,N
1541307835.3,286047000.2,N
1541307855.1,286047002.8,N
1541307875.8,286047002.6,N
1541307895.7,286046999.9,N
1541307915.5,286046999.9,N
1541307935.3,286046999.7,N
1541307955.2,286047000.0,N
1541307975.0,286047000.4,N
1541307975.9,286047000.4,N
1541307995.8,286046999.7,N
1541308015.6,286047000.4,N
1541308035.4,286047000.0,N
1541308055.3,286047000.1,N
1541308075.1,286047002.8,N
1541308095.8,286047002.6,N
1541308115.7,286047002.5,N
1541308135.5,286047002.8,N
1541308155.4,286047002.4,N
1541308175.2,286047002.8,N
1541308195.0,286047000.3,N
1541308195.9,286047000.3,N
1541308215.8,286047002.2,N
1541308235.6,286047002.3,N
1541308255.5,286047000.3,N
1541308275.3,286047001.0,N
1541308295.1,286047000.5,N
1541308315.9,286047000.5,N
1541308335.7,286047000.3,N
1541308355.5,286046998.1,N
1541308375.7,286046998.2,N
1541308395.5,286047000.5,N
1541308415.3,286046998.1,N
1541308435.2,286047000.7,N
1541308455.0,286046999.7,N
1541308455.9,286046999.7,N
1541308475.7,286047000.2,N
1541308495.6,286047000.0,N
1541308515.4,286047000.5,N
1541308535.3,286047000.0,N
1541308555.1,286047002.8,N
1541308556.0,286047002.8,N
1541308575.8,286046999.8,N
1541308595.7,286047001.6,N
1541308615.5,286047000.1,N
1541308635.3,286047001.0,N
1541308655.2,286047000.9,N
1541308675.0,286047000.0,N
1541308675.9,286047000.0,N
1541308695.8,286047000.4,N
1541308715.6,286047000.1,N
1541308735.4,286047002.3,N
1541308755.3,286047000.1,N
1541308775.1,286046999.8,N
1541308795.9,286047002.2,N
1541308815.7,286047002.7,N
1541308835.5,286047000.1,N
1541308855.4,286047000.4,N
1541308875.2,286047000.3,N
1541308895.1,286046999.8,N
1541308896.0,286046999.8,N
1541308915.8,286046999.9,N
1541308935.6,286046999.9,N
1541308955.5,286046999.9,N
1541308975.3,286046999.8,N
1541308995.1,286047002.1,N
1541309015.9,286047001.8,N
1541309035.7,286047001.6,N
1541309055.7,286047002.6,N
1541309075.6,286047003.9,Y
1541309095.4,286047002.4,P
1541309115.3,286047000.4,N
1541309135.1,286047000.4,N
1541309136.0,286047000.4,N
1541309155.8,286047000.5,N
1541309175.7,286047000.2,N
1541309195.5,286047000.4,N
1541309215.3,286046999.9,N
1541309235.2,286047002.8,Y
1541309255.0,286047000.8,P
1541309255.9,286047000.8,P
1541309275.8,286046998.2,P
1541309295.6,286046999.0,N
1541309315.4,286046999.3,N
1541309335.3,286046998.7,N
1541309355.1,286046998.5,N
1541309375.8,286047000.7,N
1541309395.7,286046999.7,N
1541309415.5,286047002.4,N
1541309435.4,286047001.0,N
1541309455.2,286047000.5,N
1541309475.0,286047001.0,N
1541309475.9,286047001.0,N
1541309495.8,286046998.5,N
1541309515.6,286046998.5,N
1541309535.5,286046998.4,N
1541309555.3,286046998.1,N
1541309575.1,286047000.5,N
1541309595.6,286047001.1,N
1541309615.4,286046998.4,N
1541309635.2,286046998.6,N
1541309655.1,286047001.2,N
1541309656.0,286047001.2,N
1541309675.8,286047000.9,N
1541309695.6,286047000.3,N
1541309715.5,286047000.2,N
1541309735.3,286047000.1,N
1541309755.2,286047000.1,N
1541309775.9,286047000.1,N
1541309795.7,286046999.8,N
1541309815.6,286047001.0,N
1541309835.4,286047001.0,N
1541309855.2,286047000.4,N
1541309875.1,286046998.1,N
1541309876.0,286046998.1,N
1541309895.8,286047001.0,N
1541309945.7,286046998.1,E
1541309955.6,286047000.0,N
1541309975.5,286047001.7,P
1541309995.3,286047004.3,P
1541310015.1,286047004.4,N
1541310035.9,286047001.8,N
1541310055.7,286047001.3,N
1541310075.5,286047002.3,N
1541310095.4,286047002.5,N
1541310115.2,286047001.6,N
1541310135.1,286047002.8,N
1541310136.0,286047002.8,N
1541310155.8,286047002.8,N
1541310175.6,286047002.6,N
1541310195.5,286047002.4,N
1541310215.3,286047002.4,N
1541310235.1,286047002.3,N
1541310255.9,286047002.3,N
1541310275.7,286047002.3,N
1541310295.6,286047001.9,N
1541310315.4,286047002.5,N
1541310335.2,286047001.9,N
1541310355.1,286047002.1,N
1541310356.0,286047002.1,N
1541310375.8,286047002.1,N
1541310395.7,286047001.4,N
1541310415.5,286047002.2,N
1541310435.3,286047003.5,Y
1541310455.2,286047002.5,P
1541310475.0,286047000.5,P
1541310475.9,286047000.5,N
1541310495.7,286047000.5,N
1541310515.6,286047000.7,N
1541310535.4,286047001.0,N
1541310555.3,286047002.7,Y
1541310575.1,286047000.8,P
1541310576.0,286047000.8,P
1541310595.8,286046999.3,P
1541310615.7,286047001.2,N
1541310635.5,286046998.2,N
1541310655.3,286047000.1,N
1541310675.2,286047000.3,N
1541310695.0,286047001.1,N
1541310695.9,286047001.1,N
1541310715.8,286047000.7,N
1541310735.6,286047002.6,N
1541310755.4,286047002.6,N
1541310775.3,286047002.8,N
1541310795.1,286047000.0,N
1541310815.8,286046998.9,N
1541310835.7,286046998.6,N
1541310855.5,286046998.7,N
1541310875.4,286046998.6,N
1541310895.2,286046998.5,N
1541310915.0,286046998.1,N
1541310915.9,286046998.1,N
1541310935.8,286046998.1,N
1541310955.6,286047000.0,N
1541310975.4,286047000.0,N
1541310995.3,286046998.7,N
1541311015.1,286046999.4,N
1541311035.9,286046999.0,N
1541311055.7,286046998.4,N
1541311075.5,286046998.6,N
1541311095.4,286046998.2,N
1541311115.2,286046998.5,N
1541311135.0,286046998.5,N
1541311135.9,286046998.5,N
1541311155.8,286046999.0,N
1541311175.6,286046999.3,N
1541311195.5,286047001.2,N
